Time+07,TemperatureF,Dew PointF,Humidity,Sea Level PressureIn,VisibilityMPH,Wind Direction,Wind SpeedMPH,Gust SpeedMPH,PrecipitationIn,Events,Conditions,WindDirDegrees,DateUTC
1:00 AM,77,75,92,29.80,4,Calm,Calm,,,,Mist,,2012-11-29 18:00:00
6:00 AM,75.2,75.2,100,29.77,3.1,Calm,Calm,-,N/A,,Scattered Clouds,0,2012-11-29 23:00:00
7:00 AM,75,74,95,29.78,4,Calm,Calm,,,,Mist,,2012-11-30 00:00:00
7:00 AM,75.2,75.2,100,29.77,3.7,Calm,Calm,-,N/A,,Scattered Clouds,0,2012-11-30 00:00:00
8:00 AM,77.0,77.0,100,29.80,6.2,SW,4.6,-,N/A,,Scattered Clouds,230,2012-11-30 01:00:00
9:00 AM,80.6,78.8,94,29.83,6.2,Calm,Calm,-,N/A,,Scattered Clouds,0,2012-11-30 02:00:00
10:00 AM,82.4,78.8,89,29.83,6.2,East,4.6,-,N/A,,Mostly Cloudy,100,2012-11-30 03:00:00
11:00 AM,84.2,78.8,84,29.83,6.2,Calm,Calm,-,N/A,,Mostly Cloudy,0,2012-11-30 04:00:00
12:00 PM,86.0,78.8,79,29.80,6.2,South,3.5,-,N/A,,Mostly Cloudy,190,2012-11-30 05:00:00
1:00 PM,88,78,65,29.77,5,Calm,Calm,,,,Mist,,2012-11-30 06:00:00
1:00 PM,87.8,78.8,75,29.77,6.2,ENE,6.9,-,N/A,,Mostly Cloudy,70,2012-11-30 06:00:00
2:00 PM,87.8,78.8,75,29.74,6.2,ENE,6.9,-,N/A,,Mostly Cloudy,70,2012-11-30 07:00:00
3:00 PM,84.2,78.8,84,29.71,6.2,NE,13.8,-,N/A,,Overcast,50,2012-11-30 08:00:00
4:00 PM,78.8,78.8,100,29.71,3.7,NE,8.1,-,N/A,,Overcast,50,2012-11-30 09:00:00
5:00 PM,82.4,78.8,89,29.74,6.2,NNE,10.4,-,N/A,,Mostly Cloudy,30,2012-11-30 10:00:00
7:00 PM,80,72,71,29.78,4,Calm,Calm,,,,Mist,,2012-11-30 12:00:00
7:00 PM,80.6,78.8,94,29.77,5.0,North,4.6,-,N/A,,Overcast,360,2012-11-30 12:00:00
8:00 PM,78.8,78.8,100,29.80,4.3,NNE,6.9,-,N/A,,Mostly Cloudy,20,2012-11-30 13:00:00
9:00 PM,78.8,78.8,100,29.83,4.3,NNW,5.8,-,N/A,,Mostly Cloudy,330,2012-11-30 14:00:00
10:00 PM,78.8,77.0,94,29.83,4.3,NW,4.6,-,N/A,,Mostly Cloudy,310,2012-11-30 15:00:00
11:00 PM,78.8,78.8,100,29.83,4.3,NNW,5.8,-,N/A,,Mostly Cloudy,340,2012-11-30 16:00:00